Time,TemperatureF,DewpointF,PressureIn,WindDirection,WindDirectionDegrees,WindSpeedMPH,WindSpeedGustMPH,Humidity,HourlyPrecipIn,Conditions,Clouds,dailyrainin,SoftwareType,DateUTC
2013-04-02 00:20:00,45.0,-99.9,-100.00,NW,319,0.0,0.0,-999,-99.99,,,-99.99,,2013-04-02 07:20:00,
2013-04-02 01:02:00,45.0,-99.9,-100.00,NW,319,0.0,0.0,-999,-99.99,,,-99.99,,2013-04-02 08:02:00,
2013-04-02 01:14:00,45.0,-99.9,-100.00,NW,319,0.0,0.0,-999,-99.99,,,-99.99,,2013-04-02 08:14:00,
2013-04-02 02:20:00,47.0,-99.9,-100.00,WSW,248,0.0,0.0,-999,-99.99,,,-99.99,,2013-04-02 09:20:00,
2013-04-02 03:04:00,47.0,-99.9,-100.00,WSW,248,0.0,0.0,-999,-99.99,,,-99.99,,2013-04-02 10:04:00,
2013-04-02 03:13:00,47.0,-99.9,-100.00,WSW,248,0.0,0.0,-999,-99.99,,,-99.99,,2013-04-02 10:13:00,
2013-04-02 06:02:00,46.0,-99.9,-100.00,WSW,248,0.0,0.0,-999,-99.99,,,-99.99,,2013-04-02 13:02:00,
2013-04-02 06:12:00,46.0,-99.9,-100.00,WSW,248,0.0,0.0,-999,-99.99,,,-99.99,,2013-04-02 13:12:00,
2013-04-02 06:23:00,46.0,-99.9,-100.00,WSW,248,0.0,0.0,-999,-99.99,,,-99.99,,2013-04-02 13:23:00,
2013-04-02 08:25:00,51.0,-99.9,-100.00,WSW,248,0.0,0.0,-999,-99.99,,,-99.99,,2013-04-02 15:25:00,
2013-04-02 09:04:00,51.0,-99.9,-100.00,WSW,248,0.0,0.0,-999,-99.99,,,-99.99,,2013-04-02 16:04:00,
2013-04-02 09:14:00,51.0,-99.9,-100.00,WSW,248,0.0,0.0,-999,-99.99,,,-99.99,,2013-04-02 16:14:00,
2013-04-02 09:50:00,58.0,-99.9,-100.00,SW,230,0.0,0.0,-999,-99.99,,,-99.99,,2013-04-02 16:50:00,
2013-04-02 09:54:00,54.0,-99.9,-100.00,SSW,213,0.0,0.0,-999,-99.99,,,-99.99,,2013-04-02 16:54:00,
2013-04-02 10:07:00,54.0,-99.9,-100.00,SSW,213,0.0,0.0,-999,-99.99,,,-99.99,,2013-04-02 17:07:00,
2013-04-02 10:14:00,54.0,-99.9,-100.00,SSW,213,0.0,0.0,-999,-99.99,,,-99.99,,2013-04-02 17:14:00,
2013-04-02 10:25:00,58.0,-99.9,-100.00,West,269,0.0,0.0,-999,-99.99,,,-99.99,,2013-04-02 17:25:00,
2013-04-02 10:35:00,58.0,-99.9,-100.00,SW,230,0.0,0.0,-999,-99.99,,,-99.99,,2013-04-02 17:35:00,
2013-04-02 10:44:00,58.0,-99.9,-100.00,SW,230,0.0,0.0,-999,-99.99,,,-99.99,,2013-04-02 17:44:00,
2013-04-02 11:58:00,62.0,-99.9,-100.00,WSW,241,0.0,0.0,-999,-99.99,,,-99.99,,2013-04-02 18:58:00,
2013-04-02 12:03:00,62.0,-99.9,-100.00,WSW,241,0.0,0.0,-999,-99.99,,,-99.99,,2013-04-02 19:03:00,
2013-04-02 12:13:00,62.0,-99.9,-100.00,WSW,241,0.0,0.0,-999,-99.99,,,-99.99,,2013-04-02 19:13:00,
2013-04-02 15:05:00,65.0,-99.9,-100.00,WSW,238,0.0,0.0,-999,-99.99,,,-99.99,,2013-04-02 22:05:00,
2013-04-02 15:14:00,65.0,-99.9,-100.00,WSW,238,0.0,0.0,-999,-99.99,,,-99.99,,2013-04-02 22:14:00,
2013-04-02 15:34:00,62.0,-99.9,-100.00,SW,225,0.0,0.0,-999,-99.99,,,-99.99,,2013-04-02 22:34:00,
2013-04-02 15:44:00,62.0,-99.9,-100.00,SW,225,0.0,0.0,-999,-99.99,,,-99.99,,2013-04-02 22:44:00,
2013-04-02 15:54:00,62.0,-99.9,-100.00,SW,226,0.0,0.0,-999,-99.99,,,-99.99,,2013-04-02 22:54:00,
2013-04-02 16:03:00,62.0,-99.9,-100.00,SW,226,0.0,0.0,-999,-99.99,,,-99.99,,2013-04-02 23:03:00,
2013-04-02 16:25:00,59.0,-99.9,-100.00,SW,217,0.0,0.0,-999,-99.99,,,-99.99,,2013-04-02 23:25:00,
2013-04-02 17:05:00,59.0,-99.9,-100.00,SW,217,0.0,0.0,-999,-99.99,,,-99.99,,2013-04-03 00:05:00,
2013-04-02 17:14:00,59.0,-99.9,-100.00,SW,217,0.0,0.0,-999,-99.99,,,-99.99,,2013-04-03 00:14:00,
2013-04-02 17:40:00,58.0,-99.9,-100.00,WSW,251,0.0,0.0,-999,-99.99,,,-99.99,,2013-04-03 00:40:00,
2013-04-02 17:58:00,59.0,-99.9,-100.00,ESE,111,0.0,0.0,-999,-99.99,,,-99.99,,2013-04-03 00:58:00,
2013-04-02 18:04:00,59.0,-99.9,-100.00,ESE,111,0.0,0.0,-999,-99.99,,,-99.99,,2013-04-03 01:04:00,
2013-04-02 18:23:00,58.0,-99.9,-100.00,WSW,251,0.0,0.0,-999,-99.99,,,-99.99,,2013-04-03 01:23:00,
2013-04-02 18:34:00,58.0,-99.9,-100.00,WSW,251,0.0,0.0,-999,-99.99,,,-99.99,,2013-04-03 01:34:00,
2013-04-02 20:23:00,51.0,-99.9,-100.00,SW,227,0.0,0.0,-999,-99.99,,,-99.99,,2013-04-03 03:23:00,
2013-04-02 20:38:00,51.0,-99.9,-100.00,WSW,237,0.0,0.0,-999,-99.99,,,-99.99,,2013-04-03 03:38:00,
2013-04-02 20:44:00,51.0,-99.9,-100.00,WSW,237,0.0,0.0,-999,-99.99,,,-99.99,,2013-04-03 03:44:00,
2013-04-02 20:54:00,51.0,-99.9,-100.00,WSW,237,0.0,0.0,-999,-99.99,,,-99.99,,2013-04-03 03:54:00,
2013-04-02 22:40:00,47.0,-99.9,-100.00,SSW,208,0.0,0.0,-999,-99.99,,,-99.99,,2013-04-03 05:40:00,
2013-04-02 23:22:00,47.0,-99.9,-100.00,SSW,208,0.0,0.0,-999,-99.99,,,-99.99,,2013-04-03 06:22:00,
2013-04-02 23:32:00,47.0,-99.9,-100.00,SSW,208,0.0,0.0,-999,-99.99,,,-99.99,,2013-04-03 06:32:00,